Weather History for Defiance, OH

Change the Weather History Date:

Sunday, March 10, 2013

  Actual Average Record
Temperature  
Mean Temperature 50 °F -  
Max Temperature 63 °F 44 °F 64 °F (1986)
Min Temperature 37 °F 23 °F -4 °F (1978)
Degree Days  
Heating Degree Days 15    
Moisture  
Dew Point 37 °F    
Average Humidity 54    
Maximum Humidity 79    
Minimum Humidity 41    
Precipitation  
Precipitation 0.01 in - - ()
Sea Level Pressure  
Sea Level Pressure 29.91 in    
Wind  
Wind Speed 8 mph (SSE)    
Max Wind Speed 17 mph    
Max Gust Speed 25 mph    
Visibility 10 miles    
Events Rain    
Averages and records for this station are not official NWS values.
T = Trace of Precipitation, MM = Missing Value Source: NWS Daily Summary

Daily Weather History Graph

Daily Weather History Graph

Search for Another Location

Airport:

Trip Planner

Search our weather history database for the weather conditions in past years. The results will help you decide how hot, cold, wet, or windy it might be!

Date:

Astronomy

Mar. 10, 2013 Rise Set
Actual Time 7:57 AM EDT 7:39 PM EDT
Civil Twilight 7:29 AM EDT 8:06 PM EDT
Nautical Twilight 6:57 AM EDT 8:38 PM EDT
Astronomical Twilight 6:25 AM EDT 9:11 PM EDT
Moon 6:57 AM EDT (3/10) 6:45 PM EDT (3/10)
Length of Visible Light 12h 36m
Length of Day
11h 41m
Waning Crescent, 2% of the Moon is Illuminated
Mar 10
Waning Crescent
Mar 11
New
Mar 19
First Quarter
Mar 27
Full
Apr 3
Last Quarter

Hourly Weather History & Observations

Time (EDT) Temp. Windchill Dew Point Humidity Pressure Visibility Wind Dir Wind Speed Gust Speed Precip Events Conditions
12:53 AM 39.0 °F 36.8 °F 30.9 °F 73% 30.01 in 10.0 mi ENE 3.5 mph - N/A   Clear
1:53 AM 37.9 °F 35.5 °F 32.0 °F 79% 30.00 in 10.0 mi East 3.5 mph - N/A   Mostly Cloudy
3:53 AM 39.0 °F - 32.0 °F 76% 29.99 in 10.0 mi Calm Calm - N/A   Mostly Cloudy
4:53 AM 41.0 °F 39.0 °F 33.1 °F 73% 29.97 in 10.0 mi SE 3.5 mph - N/A   Overcast
5:53 AM 46.9 °F - 33.1 °F 59% 29.97 in 10.0 mi SSE 5.8 mph - 0.00 in   Overcast
6:53 AM 48.0 °F - 33.1 °F 56% 29.97 in 10.0 mi South 5.8 mph - N/A   Overcast
8:53 AM 50.0 °F - 34.0 °F 54% 29.98 in 10.0 mi South 9.2 mph - 0.00 in   Overcast
9:53 AM 52.0 °F - 34.0 °F 50% 29.96 in 10.0 mi SSE 11.5 mph 19.6 mph N/A   Partly Cloudy
10:53 AM 53.1 °F - 36.0 °F 52% 29.95 in 10.0 mi South 15.0 mph 20.7 mph N/A   Partly Cloudy
11:53 AM 55.0 °F - 37.0 °F 51% 29.94 in 10.0 mi South 15.0 mph 25.3 mph N/A   Clear
12:53 PM 57.0 °F - 39.0 °F 51% 29.94 in 10.0 mi SSW 15.0 mph 23.0 mph N/A   Partly Cloudy
1:53 PM 59.0 °F - 39.9 °F 49% 29.92 in 10.0 mi South 17.3 mph 24.2 mph N/A   Clear
2:53 PM 60.1 °F - 42.1 °F 51% 29.92 in 10.0 mi South 11.5 mph 21.9 mph N/A   Clear
3:53 PM 62.1 °F - 42.1 °F 48% 29.89 in 10.0 mi South 11.5 mph 19.6 mph N/A   Clear
4:53 PM 63.0 °F - 39.9 °F 43% 29.86 in 10.0 mi South 15.0 mph 24.2 mph N/A   Clear
5:53 PM 61.0 °F - 39.9 °F 46% 29.87 in 10.0 mi South 11.5 mph 19.6 mph N/A   Clear
6:53 PM 60.1 °F - 39.0 °F 46% 29.83 in 10.0 mi SSE 6.9 mph - N/A   Clear
7:53 PM 60.1 °F - 37.9 °F 44% 29.84 in 10.0 mi SSE 10.4 mph 17.3 mph N/A   Clear
8:53 PM 59.0 °F - 37.9 °F 46% 29.83 in 10.0 mi SSE 6.9 mph - N/A   Clear
9:53 PM 60.1 °F - 36.0 °F 41% 29.81 in 10.0 mi SSE 8.1 mph - N/A   Mostly Cloudy
10:53 PM 60.1 °F - 36.0 °F 41% 29.81 in 10.0 mi South 9.2 mph 17.3 mph 0.00 in   Overcast
11:53 PM 57.9 °F - 39.9 °F 51% 29.81 in 10.0 mi South 16.1 mph 25.3 mph 0.00 in Rain Light Rain
12:53 AM 57.0 °F - 39.9 °F 53% 29.78 in 10.0 mi South 15.0 mph 21.9 mph 0.01 in   Overcast